User: anonymous   Login
Location: Maiden
(35.5760°N, 81.2120°W)
Time: 10:53:42
(UTC-05:00)
Language:

Cosmos 2151 - Orbit

View from above orbital plane
View from above orbital plane
View from above satellite
View from above satellite

Ground track
Ground track

The orbit data is extracted from the following two-line orbital elements,

1 21422U 91042A   17051.22106488  .00000261  00000-0  23310-4 0  9994
2 21422  82.5029 357.7482 0013525 331.0628  28.9840 14.91776088391065
Epoch (UTC): 20 February 2017 05:18:20
Eccentricity: 0.0013525
inclination: 82.5029°
perigee height: 583 km
apogee height: 602 km
right ascension of ascending node: 357.7482°
argument of perigee: 331.0628°
revolutions per day: 14.91776088
mean anomaly at epoch: 28.9840°
orbit number at epoch: 39106

The dashed part of the orbit path shows where the satellite is in the earth's shadow,  

DLR